Volver al catálogo

STRIX-BETA DEB

LostSSO
NORAD 53461·DEBRIS·🇯🇵 Japan

Lanzado Feb 28, 2022 desde Rocket Lab Launch Complex 1

Loading…

Próximos Pases (próximas 24 horas)

TLE

ObsoletoSource: Space-Track

Época: Sep 10, 2022, 09:35 UTC

1 53461U 22020E   22253.39954434  .00002995  00000-0  23730-3 0  9993
2 53461  97.7512 307.1192 0010284   2.6328 357.4948 15.01305959  5868

Sigue STRIX-BETA DEB en tiempo real con AllMySat

Download on the App Store